EW3230 Weather Reports


Display with metric or nautical units.
time (UTC)temp
F
wind
direction
speed
MPH
gust
MPH
rain 1hr
in
rain 24hr
in
rain mn
in
humidity
%
barometer
mb
20260904172226 81 99 0.0 5.0 0.00 0.00 0.00 64 1008.5
20260904171224 81 273 1.0 5.0 0.00 0.00 0.00 67 1008.5
20260904170727 81 89 0.0 6.0 0.00 0.00 0.00 68 1008.5
20260904165221 81 235 0.0 3.0 0.00 0.00 0.00 69 1008.7
20260904164218 81 239 1.0 6.0 0.00 0.00 0.00 68 1008.8
20260904163218 80 343 1.0 6.0 0.00 0.00 0.00 71 1008.9
20260904162221 80 221 1.0 4.0 0.00 0.00 0.00 71 1009.1
20260904161218 80 72 1.0 6.0 0.00 0.00 0.00 72 1009.0
20260904160231 79 237 1.0 5.0 0.00 0.00 0.00 72 1009.2
20260904155218 78 52 1.0 3.0 0.00 0.00 0.00 73 1009.3
20260904154218 78 302 0.0 4.0 0.00 0.00 0.00 74 1009.2
20260904153219 77 232 1.0 3.0 0.00 0.00 0.00 74 1009.2
20260904152219 77 327 1.0 7.0 0.00 0.00 0.00 74 1009.3
20260904151219 76 79 1.0 6.0 0.00 0.00 0.00 74 1009.5
20260904150220 76 216 1.0 5.0 0.00 0.00 0.00 74 1009.6
20260904145217 76 217 1.0 7.0 0.00 0.00 0.00 73 1009.6
20260904144217 75 79 1.0 7.0 0.00 0.00 0.00 71 1009.6
20260904143218 74 91 1.0 6.0 0.00 0.00 0.00 69 1009.6
20260904142212 74 75 2.0 6.0 0.00 0.00 0.00 70 1009.7
20260904141214 74 83 1.0 6.0 0.00 0.00 0.00 65 1009.8
20260904140215 73 105 1.0 5.0 0.00 0.00 0.00 61 1009.9
20260904135214 72 285 1.0 3.0 0.00 0.00 0.00 54 1010.0
20260904134218 71 75 1.0 5.0 0.00 0.00 0.00 53 1009.8
20260904134212 71 52 1.0 5.0 0.00 0.00 0.00 53 1009.8
20260904132212 71 78 0.0 3.0 0.00 0.00 0.00 54 1009.8
20260904131213 70 324 0.0 1.0 0.00 0.00 0.00 54 1009.8
20260904130716 70 232 0.0 1.0 0.00 0.01 0.00 55 1009.8
20260904125215 70 231 0.0 1.0 0.00 0.01 0.00 55 1009.9
20260904124713 69 298 0.0 2.0 0.00 0.03 0.00 55 1009.9
20260904123712 69 22 0.0 0.0 0.00 0.04 0.00 56 1009.9
20260904122209 69 23 0.0 0.0 0.00 0.04 0.00 56 1009.9
20260904121209 68 23 0.0 0.0 0.00 0.04 0.00 56 1010.1
20260904120208 67 23 0.0 0.0 0.00 0.05 0.00 57 1010.1
20260904115215 66 22 0.0 0.0 0.00 0.10 0.00 57 1010.2
20260904115209 66 23 0.0 0.0 0.00 0.06 0.00 57 1010.2
20260904113208 65 22 0.0 0.0 0.00 0.10 0.00 57 1010.1
20260904112208 65 22 0.0 0.0 0.00 0.10 0.00 57 1010.0
20260904111204 65 22 0.0 0.0 0.00 0.10 0.00 57 1010.0
20260904110205 65 22 0.0 0.0 0.00 0.10 0.00 57 1010.0
20260904105203 65 22 0.0 0.0 0.00 0.10 0.00 57 1009.9
20260904104203 65 22 0.0 0.0 0.00 0.10 0.00 57 1009.9
20260904103204 65 22 0.0 0.0 0.00 0.10 0.00 57 1009.9
20260904102704 65 22 0.0 0.0 0.00 0.10 0.00 58 1009.8
20260904101704 64 23 0.0 0.0 0.00 0.12 0.00 58 1009.8
20260904100204 64 23 0.0 0.0 0.00 0.21 0.00 58 1009.7
20260904095202 64 23 0.0 0.0 0.00 0.23 0.00 58 1009.6
20260904094156 64 22 0.0 0.0 0.00 0.26 0.00 58 1009.6
20260904093157 64 22 0.0 0.0 0.00 0.26 0.00 58 1009.6
20260904092157 64 22 0.0 0.0 0.00 0.27 0.00 58 1009.5
20260904091158 64 22 0.0 0.0 0.00 0.27 0.00 58 1009.5
20260904090157 64 22 0.0 0.0 0.00 0.28 0.00 57 1009.6
20260904085158 64 22 0.0 1.0 0.00 0.28 0.00 57 1009.7
20260904084156 64 23 0.0 0.0 0.00 0.28 0.00 57 1009.7
20260904083156 64 22 0.0 0.0 0.00 0.28 0.00 57 1009.7
20260904082156 64 23 0.0 0.0 0.00 0.28 0.00 57 1009.7
20260904081652 64 23 0.0 0.0 0.00 0.29 0.00 57 1009.7
20260904080152 64 23 0.0 0.0 0.00 0.29 0.00 57 1009.6
20260904075151 65 23 0.0 0.0 0.00 0.29 0.00 57 1009.8
20260904074150 65 23 0.0 0.0 0.00 0.29 0.00 57 1009.8
20260904073152 65 23 0.0 0.0 0.00 0.29 0.00 57 1010.0
20260904072153 65 23 0.0 0.0 0.00 0.29 0.00 57 1010.1
20260904071152 65 23 0.0 0.0 0.00 0.29 0.00 57 1010.2
20260904070152 65 23 0.0 0.0 0.00 0.29 0.00 57 1010.3
20260904065149 65 23 0.0 0.0 0.00 0.29 0.00 57 1010.5
20260904064144 65 23 0.0 0.0 0.00 0.29 0.00 57 1010.5
20260904063143 65 23 0.0 0.0 0.00 0.29 0.00 57 1010.5
20260904062143 66 22 0.0 0.0 0.00 0.29 0.00 57 1010.5
20260904061156 66 22 0.0 0.0 0.00 0.29 0.00 56 1010.6
20260904060145 66 23 0.0 0.0 0.00 0.29 0.00 56 1010.4
20260904055143 66 23 0.0 0.0 0.00 0.29 0.00 56 1010.6
20260904054145 66 23 0.0 0.0 0.00 0.29 0.00 56 1010.7
20260904053143 66 23 0.0 0.0 0.00 0.29 0.00 56 1010.8
20260904052144 67 23 0.0 0.0 0.00 0.29 0.00 56 1011.0
20260904051137 67 23 0.0 0.0 0.00 0.29 0.00 56 1011.0
20260904050149 67 23 0.0 0.0 0.00 0.29 0.00 56 1011.3
20260904045639 67 22 0.0 0.0 0.00 0.29 0.00 56 1011.4
20260904044139 67 22 0.0 0.0 0.00 0.29 0.00 56 1011.4
20260904043137 67 23 0.0 0.0 0.00 0.29 0.00 56 1011.6
20260904042637 67 23 0.0 0.0 0.00 0.29 0.00 56 1011.6
20260904041138 67 23 0.0 0.0 0.00 0.29 0.00 56 1011.6
20260904040138 67 20 0.0 0.0 0.00 0.29 0.00 56 1011.7
20260904035635 68 22 0.0 0.0 0.00 0.29 0.29 56 1011.8
20260904034128 68 20 0.0 0.0 0.00 0.29 0.29 56 1011.7
20260904033128 68 20 0.0 0.0 0.00 0.29 0.29 56 1011.9
20260904032130 68 36 0.0 0.0 0.00 0.29 0.29 56 1011.7
20260904031130 68 35 0.0 0.0 0.00 0.29 0.29 55 1011.5
20260904030129 69 36 0.0 0.0 0.00 0.29 0.29 55 1011.6
20260904025630 69 35 0.0 0.0 0.00 0.29 0.29 55 1011.7
20260904024129 69 35 0.0 0.0 0.00 0.29 0.29 55 1011.9
20260904023630 69 35 0.0 0.0 0.00 0.29 0.29 55 1011.9
20260904022631 69 36 0.0 0.0 0.00 0.29 0.29 55 1012.1
20260904021127 69 35 0.0 0.0 0.00 0.29 0.29 55 1011.9
20260904020127 70 35 0.0 0.0 0.00 0.29 0.29 55 1012.1
20260904015128 70 35 0.0 0.0 0.00 0.29 0.29 55 1012.2
20260904014629 70 36 0.0 0.0 0.00 0.29 0.29 55 1012.5
20260904013130 70 35 0.0 0.0 0.00 0.29 0.29 55 1012.6
20260904012128 70 35 0.0 0.0 0.00 0.29 0.29 55 1012.6
20260904011126 70 35 0.0 0.0 0.00 0.29 0.29 55 1012.6
20260904010124 70 35 0.0 0.0 0.00 0.29 0.29 55 1012.4
20260904005126 71 36 0.0 0.0 0.00 0.29 0.29 55 1012.2
20260904004125 71 35 0.0 0.0 0.00 0.29 0.29 56 1012.2
20260904003125 71 35 0.0 0.0 0.00 0.29 0.29 56 1012.0
20260904002126 71 35 0.0 0.0 0.00 0.29 0.29 56 1011.9
20260904001126 71 36 0.0 0.0 0.00 0.29 0.29 56 1011.7
20260904000627 72 35 0.0 0.0 0.00 0.29 0.29 57 1011.7
20260903235626 72 36 0.0 0.0 0.00 0.29 0.29 57 1011.6
20260903234125 72 35 0.0 1.0 0.00 0.29 0.29 57 1011.5
20260903233126 73 35 0.0 0.0 0.00 0.29 0.29 58 1011.6
20260903232118 73 36 0.0 0.0 0.00 0.29 0.29 59 1011.5
20260903231120 73 35 0.0 0.0 0.00 0.29 0.29 60 1011.6
20260903230120 74 36 0.0 0.0 0.00 0.29 0.29 61 1011.5
20260903225118 74 35 0.0 0.0 0.00 0.29 0.29 62 1011.7
20260903224119 75 35 0.0 0.0 0.00 0.29 0.29 62 1011.7
20260903223120 75 36 0.0 0.0 0.00 0.29 0.29 62 1011.9
20260903222118 75 35 0.0 2.0 0.00 0.29 0.29 62 1011.8
20260903221621 75 63 0.0 1.0 0.00 0.29 0.29 62 1011.9
20260903221235 74 60 0.0 1.0 0.00 0.29 0.29 64 1011.8
20260903215617 74 68 0.0 4.0 0.00 0.29 0.29 66 1011.7
20260903214115 75 248 0.0 3.0 0.00 0.29 0.29 66 1011.8
20260903213114 74 75 1.0 4.0 0.00 0.29 0.29 66 1011.8
20260903212114 75 273 0.0 2.0 0.00 0.29 0.29 65 1011.9
20260903211112 75 52 0.0 1.0 0.00 0.29 0.29 66 1011.7
20260903210116 75 253 0.0 2.0 0.00 0.29 0.29 67 1011.7
20260903205117 76 36 0.0 4.0 0.00 0.29 0.29 69 1011.9
20260903205113 75 96 0.0 3.0 0.00 0.29 0.29 69 1011.7
20260903203114 76 287 1.0 4.0 0.00 0.29 0.29 69 1011.8
20260903202108 77 52 0.0 3.0 0.00 0.29 0.29 68 1011.8
20260903201119 76 41 1.0 5.0 0.00 0.29 0.29 69 1011.7
20260903200109 78 97 1.0 6.0 0.00 0.29 0.29 72 1012.0
20260903195108 80 307 0.0 3.0 0.00 0.29 0.29 72 1012.0
20260903194108 79 191 0.0 1.0 0.00 0.29 0.29 71 1012.0
20260903193108 79 193 0.0 2.0 0.00 0.29 0.29 69 1012.1
20260903192109 78 134 0.0 1.0 0.00 0.29 0.29 70 1012.2
20260903191108 78 134 0.0 1.0 0.00 0.29 0.29 70 1012.4
20260903190109 78 131 0.0 1.0 0.00 0.29 0.29 70 1012.5
20260903185603 79 134 0.0 3.0 0.00 0.29 0.29 70 1012.6
20260903184103 79 101 0.0 2.0 0.00 0.29 0.29 71 1012.5
20260903183100 80 134 0.0 1.0 0.00 0.29 0.29 72 1012.7
20260903182102 79 135 0.0 2.0 0.00 0.29 0.29 69 1012.7
20260903181631 79 123 0.0 2.0 0.00 0.29 0.29 69 1012.8
20260903180112 79 145 1.0 2.0 0.00 0.29 0.29 70 1012.9
20260903175100 80 110 0.0 2.0 0.00 0.29 0.29 72 1012.9
20260903174102 79 164 0.0 1.0 0.00 0.29 0.29 73 1013.0
20260903173102 79 237 0.0 1.0 0.00 0.29 0.29 72 1013.2